Regional Weather Roundup
Issued by NWS Cleveland, OH

Home | Current Version | Previous Version | Text Only | Print | Product List | Glossary Off
Versions: 1 2 3 4 5 6 7 8 9 10 11 12 13 14 15 16 17 18 19 20 21 22 23 24 25 26 27 28 29 30 31 32 33 34 35 36 37 38 39 40 41 42 43 44 45 46 47 48 49 50

089
ASUS41 KCLE 061510
RWRCLE
OHIO REGIONAL WEATHER ROUNDUP
NATIONAL WEATHER SERVICE WILMINGTON, OH
1000 AM EST SAT FEB 06 2016

NOTE: "FAIR" INDICATES FEW OR NO CLOUDS BELOW 12,000 FEET WITH NO
SIGNIFICANT WEATHER AND/OR OBSTRUCTIONS TO VISIBILITY.

OHZ001>008-015>018-024>027-034-035-043-044-061600-
   NORTHWEST OHIO

CITY           SKY/WX    TMP DP  RH WIND       PRES   REMARKS
DEFIANCE       FAIR      29  24  82 SW6       30.32S HAZE    WCI  23
FINDLAY        FAIR      30  26  85 W8        30.32S FOG     WCI  22
TOLEDO EXPRESS FAIR      29  23  78 SW8       30.30F WCI  21
TOLEDO EXEC    FAIR      29  24  82 SW10      30.32F HAZE    WCI  20
LIMA           CLOUDY    27  25  92 W7        30.33R FOG     WCI  19
$$

OHZ009>014-019>023-028>033-038-089-061600-
   NORTHEAST OHIO

CITY           SKY/WX    TMP DP  RH WIND       PRES   REMARKS
CLE-HOPKINS    FAIR      31  23  72 W8        30.34S WCI  23
CLE-LAKEFRONT  PTSUNNY   32  24  72 SW8       30.32S WCI  25
CUY CO. ARPT   NOT AVBL
LORAIN-ELYRIA  FAIR      30  22  72 W8        30.32S WCI  22
ASHTABULA      CLOUDY    30  23  75 SW14      30.30S WCI  19
AKRON-CANTON   FAIR      30  23  75 W6        30.30S HAZE    WCI  24
WOOSTER        PTSUNNY   29  23  78 W6        30.31S WCI  23
MANSFIELD      FAIR      28  23  81 SW7       30.30S WCI  21
YOUNGSTOWN     FAIR      32  22  66 W8        30.29R WCI  25
$$

OHZ042-051>053-060>062-070>072-077>081-061600-
  SOUTHWEST OHIO

CITY           SKY/WX    TMP DP  RH WIND       PRES   REMARKS
CINC-COVINGTON FAIR      31  27  85 S3        30.34S FOG
CINC-LUNKEN    FAIR      31  28  89 CALM      30.38F
HAMILTON       FAIR      32  26  78 CALM      30.37S
DAYTON         FAIR      29  25  85 SW6       30.33S FOG     WCI  23
WRIGHT-PAT AFB FAIR      29  25  88 SW3       30.33F
DAYTON GENERAL FAIR      29  24  82 S5        30.33S HAZE    WCI  24
WILMINGTON     FAIR      32  26  78 SW3       30.33S
$$

OHZ036-037-039>041-045>050-054>059-063>069-073>076-082>088-061600-
  CENTRAL AND SOUTHEAST OHIO

CITY           SKY/WX    TMP DP  RH WIND       PRES   REMARKS
COLUMBUS       FAIR      30  23  75 CALM      30.33S
OSU AIRPORT    FAIR      31  25  78 W6        30.32F WCI  25
BOLTON FIELD   SUNNY     30  27  86 W3        30.33F
RICKENBACK AFB FAIR      31  24  77 CALM      30.34S
NEWARK         FAIR      33  24  69 SW3       30.32S
MARION         FAIR      29  23  78 W5        30.33R HAZE    WCI  24
LANCASTER      FAIR      32  23  69 CALM      30.34S
ZANESVILLE     FAIR      35  18  49 W7        30.33S WCI  29
NEW PHILLY     FAIR      33  19  56 S6        30.32F WCI  28
$$




USA.gov is the U.S. government's official web portal to all federal, state and local government web resources and services.